Flag for Finland Weather past 2 weeks in Rovaniemi, Finland

Now
59 °F

Sunny.


Feels Like: 60 °F
Forecast: 53 / 56 °F
Wind: 3 mph from North

Location: Rovaniemi Airport

Current Time: Jul 31, 2015 at 10:40:02 PM

Latest Report: Jul 31, 2015 at 10:20 PM


Visibility: 10 mi

Pressure: 29.59 "Hg

Humidity: 82%

Dew point: 54 °F

Location of RovaniemiLocation

Historic Weather in Rovaniemi — Graph

°F

Rovaniemi temperature yesterday

Maximum temperature yesterday: 63 °F (at 4:50 PM)
Minimum temperature yesterday: 57 °F (at 7:20 AM)
Average temperature yesterday: 60 °F

Past Weeks' High & Low Weather Summary

 TemperatureHumidityPressure
High66 °F (Jul 18, 2:50 PM)100% (Jul 17, 1:50 AM)29.92 "Hg (Jul 17, 1:50 AM)
Low46 °F (Jul 23, 3:50 AM)43% (Jul 18, 3:20 PM)29.33 "Hg (Jul 30, 4:50 AM)
Average56 °F86%29.64 "Hg
* Reported Jul 16 9:20 PM — Jul 31 9:20 PM, Rovaniemi, Weather by CustomWeather, © 2015

Note: Actual official high and low records may vary slightly from our data, if they occured in-between our weather recording intervals... More about our weather records

Advertising

Rovaniemi weather history for previous 24 hours

 ConditionsComfort  
Time TempWeatherWind HumidityBarometerVisibility
9:20 PM
Fri, Jul 31
59 °FSunny.5 mph82%29.59 "Hg10 mi
8:50 PM61 °FSunny.5 mph77%29.59 "Hg10 mi
8:20 PM61 °FSunny.3 mph77%29.59 "Hg10 mi
7:50 PM61 °FSunny.5 mph77%29.59 "Hg10 mi
7:20 PM61 °FSunny.7 mph77%29.59 "Hg10 mi
6:50 PM63 °FPartly sunny.7 mph77%29.59 "HgN/A
6:20 PM61 °FMostly cloudy.8 mph77%29.59 "HgN/A
5:50 PM61 °FPartly sunny.9 mph77%29.59 "HgN/A
5:20 PM61 °FPartly sunny.8 mph77%29.56 "HgN/A
4:50 PM61 °FCloudy.12 mph77%29.56 "HgN/A
4:20 PM61 °FBroken clouds.10 mph83%29.56 "HgN/A
3:50 PM61 °FCloudy.12 mph83%29.56 "HgN/A
3:20 PM61 °FBroken clouds.13 mph83%29.56 "HgN/A
2:50 PM61 °FBroken clouds.12 mph83%29.56 "HgN/A
2:20 PM61 °FPartly sunny.14 mph83%29.56 "HgN/A
1:50 PM63 °FBroken clouds.12 mph77%29.53 "HgN/A
1:20 PM63 °FSunny.10 mph77%29.53 "Hg10 mi
12:50 PM63 °FOvercast.10 mph73%29.53 "HgN/A
12:20 PM61 °FPartly sunny.7 mph83%29.53 "HgN/A
11:50 AM63 °FLight rain. Broken clouds.10 mph73%29.53 "HgN/A
11:20 AM63 °FSunny.6 mph77%29.53 "Hg10 mi
10:20 AM61 °FScattered clouds.7 mph83%29.53 "HgN/A
9:50 AM63 °FBroken clouds.6 mph83%29.53 "HgN/A
9:20 AM61 °FScattered clouds.8 mph88%29.53 "HgN/A
8:50 AM59 °FSunny.7 mph94%29.53 "Hg10 mi
8:20 AM59 °FSunny.6 mph94%29.53 "Hg10 mi
7:50 AM57 °FSunny.6 mph94%29.53 "Hg10 mi
7:20 AM57 °FPassing clouds.1 mph100%29.53 "HgN/A
6:50 AM55 °FPassing clouds.2 mph100%29.53 "HgN/A
6:20 AM55 °FFog.2 mph100%29.53 "Hg2 mi
5:50 AM55 °FSunny.6 mph100%29.53 "Hg10 mi
5:20 AM55 °FSunny.7 mph100%29.53 "Hg10 mi
4:50 AM54 °FSunny.5 mph100%29.53 "Hg10 mi
4:20 AM55 °FClear.5 mph100%29.50 "Hg10 mi
3:50 AM55 °FClear.3 mph94%29.53 "Hg10 mi
3:20 AM55 °FClear.7 mph94%29.53 "Hg10 mi
2:50 AM55 °FClear.5 mph94%29.53 "Hg10 mi
2:20 AM55 °FClear.6 mph94%29.53 "Hg10 mi
1:50 AM54 °FClear.6 mph94%29.53 "Hg10 mi
12:20 AM57 °FClear.5 mph88%29.53 "Hg10 mi
11:50 PM
Thu, Jul 30
57 °FSunny.3 mph82%29.53 "Hg10 mi
11:20 PM57 °FSunny.3 mph82%29.53 "Hg10 mi
10:50 PM59 °FSunny.3 mph77%29.53 "Hg10 mi
10:20 PM59 °FSunny.5 mph82%29.53 "Hg10 mi
Weather by CustomWeather, © 2015

See weather overviewHow to use our weather pages